ONEWEB-0637, 56078

Orbit data source: Space-Track

ONEWEB-0637, 56078 is a payload satellite owned by One Web (NAA) (UK) in LEO that was launched on Sun, 26 Mar 2023 UTC via a LVM3 launch vehicle from the Sirharikota (SRI). Payload-class satellites include a variety of spacecraft equipped with specific instruments for various scientific and technological missions. These include communications satellites like Starlink; space stations such as the ISS; scientific satellites like the Hubble; Earth observation satellites from companies like Planet Labs, Umbra, and HawkEye 360; GPS; miniature CubeSats for education and research; and military/defense satellites.

Loading next visibility...
Identifier
56078, 2023-043AJ
Orbit
LEO
Country
Flag of UKUK
Related business
Manufacturer
One Web
Mission
Operational Commercial Communications
Bus & Motor
ARROW, Unknown motor
Mass
148 kg wet, ~140 kg dry
Launch date (UTC)
2023-03-26 (3 years ago)
Launch vehicle
LVM3
Launch site
Sirharikota (SRI)
Object type
Payload
Rocket body
Debris
Shape & HBR
Trap Box + 2 Pan, 6.7 m
Radar Cross Section
3.464 m², Large (>1 m²)

Expand to show TLE details & history
Last TLE update: 2 days ago

TLE from 2 days ago
0 ONEWEB-0637
1 56078U 23043AJ  26171.47641088  .00000108  00000-0  25234-3 0  9991
2 56078  87.9003 258.5592 0002250  94.8907 265.2481 13.15549567156867
Epoch: 2026-06-20T11:26Z
TLE epoch observation values (Epoch: 2026-06-20T11:26:01.900Z)
Latitude
0.00008°
Longitude
178.3608°
Altitude
1,204.804 km
Speed
7.252 km/s
True Right ascension
17h 14m 14s
True Declination
0° 00' 00"
Sunlit
Object was in full shadow at epoch
Visualization orbit readout
Latitude
Unknown
Longitude
Unknown
Altitude
Unknown
Speed
Unknown
Apparent Right ascension
Unknown
Apparent Declination
Unknown
Sunlit
N/A
Visualization observer readout
Local Sidereal Time
21:39:20
Azimuth
Unknown
Elevation
Unknown
Doppler factor
Unknown
Orbital elements
Apogee altitude
1,200.584 km
Perigee altitude
1,197.174 km
Semi-major axis
7,577.016 km
Eccentricity
0.00023
Inclination
87.9003°
RAAN
258.5592°
Arg. of periapsis
94.8907°
True anomaly
265.22241°
Mean anomaly
265.2481°
Eccentric anomaly
265.23525°
Mean motion
3.29076 °/min
Orbital period
109.4 mins
BSTAR
0.00025234
Loading maneuver chart data...
Computing Atmospheric mass density...
Loading historical data...
Loading historical data...
Loading historical data...
Loading historical data...
Loading historical data...
Loading historical data...
Loading historical data...

Documentation

Showing up to 5 results
|